Date String (YYYY-MM-DD hh:mm:ss) UTC,Instrument flags,Ambient pressure (hPa),Sample flow (lpm),Bypass flow (lpm),Sample temperature (°C),Ambient temperature (°C),ASC tube jacket temperature (°C),LED temperature (°C),Box temperature (°C),Sample RH (%),Span deviation,Mass concentration (μg/m³),Mass concentration (μg/m³),Mass concentration (μg/m³)
DateTimeUTC,F1_M11,P_M11,Q1_M11,Q2_M11,T1_M11,T2_M11,T3_M11,T4_M11,T5_M11,U1_M11,ZSPAN_M11,X0_M11,X2_M11,X1_M11
2023-05-04 04:00:00,,0825.1,4.99,0.00,29.8,28.4,00.0,38.2,31.4,11.5,0000.0,0015.85,0005.07,0003.37
2023-05-04 04:01:00,,0825.1,5.01,0.00,29.8,28.4,00.0,38.2,31.4,11.5,0000.0,0014.83,0005.11,0003.38
2023-05-04 04:02:00,,0825.1,5.00,0.00,29.8,28.4,00.0,38.2,31.4,11.5,0000.0,0014.14,0005.13,0003.38
2023-05-04 04:03:00,,0825.1,5.00,0.00,29.8,28.4,00.0,38.2,31.4,11.5,0000.0,0014.58,0005.13,0003.37
2023-05-04 04:04:00,,0825.1,5.00,0.00,29.8,28.4,00.0,38.2,31.4,11.5,0000.0,0015.06,0005.09,0003.37
2023-05-04 04:05:00,,0825.1,5.00,0.00,29.8,28.4,00.0,38.2,31.4,11.5,0000.0,0016.35,0005.09,0003.36
2023-05-04 04:06:00,,0825.1,5.00,0.00,29.8,28.4,00.0,38.2,31.4,11.5,0000.0,0016.24,0005.10,0003.36
2023-05-04 04:07:00,,0825.1,5.00,0.00,29.8,28.5,00.0,38.2,31.4,11.5,0000.0,0015.95,0005.09,0003.35
2023-05-04 04:08:00,,0825.1,5.00,0.00,29.9,28.5,00.0,38.2,31.4,11.4,0000.0,0015.95,0005.09,0003.34
2023-05-04 04:09:00,,0825.1,5.00,0.00,29.9,28.4,00.0,38.2,31.4,11.5,0000.0,0016.51,0005.16,0003.34
2023-05-04 04:10:00,,0825.0,4.99,0.00,29.9,28.4,00.0,38.2,31.4,11.5,0000.0,0015.89,0005.16,0003.34
2023-05-04 04:11:00,,0825.1,5.02,0.00,29.9,28.5,00.0,38.2,31.4,11.5,0000.0,0015.60,0005.12,0003.34
2023-05-04 04:12:00,,0825.1,5.01,0.00,29.9,28.5,00.0,38.2,31.4,11.6,0000.0,0015.06,0005.15,0003.34
2023-05-04 04:13:00,,0825.0,5.00,0.00,29.9,28.5,00.0,38.2,31.4,11.6,0000.0,0014.76,0005.14,0003.33
2023-05-04 04:14:00,,0825.0,5.00,0.00,29.9,28.5,00.0,38.2,31.4,11.6,0000.0,0014.96,0005.08,0003.33
2023-05-04 04:15:00,,0825.0,5.00,0.00,29.9,28.5,00.0,38.2,31.5,11.6,0000.0,0015.05,0005.11,0003.31
2023-05-04 04:16:00,,0825.0,5.00,0.00,29.9,28.5,00.0,38.3,31.5,11.6,0000.0,0014.43,0005.13,0003.30
2023-05-04 04:17:00,,0824.9,5.00,0.00,29.9,28.5,00.0,38.3,31.5,11.5,0000.0,0013.81,0005.10,0003.29
2023-05-04 04:18:00,,0824.9,5.00,0.00,29.9,28.4,00.0,38.3,31.4,11.6,0000.0,0013.69,0005.04,0003.29
2023-05-04 04:19:00,,0824.9,4.99,0.00,29.9,28.5,00.0,38.3,31.5,11.5,0000.0,0013.53,0005.00,0003.28
2023-05-04 04:20:00,,0824.9,4.99,0.00,29.9,28.5,00.0,38.3,31.4,11.4,0000.0,0012.76,0004.84,0003.27
2023-05-04 04:21:00,,0825.0,5.00,0.00,29.9,28.5,00.0,38.3,31.5,11.5,0000.0,0012.74,0004.74,0003.26
2023-05-04 04:22:00,,0824.9,5.01,0.00,29.9,28.5,00.0,38.3,31.5,11.5,0000.0,0012.56,0004.70,0003.24
2023-05-04 04:23:00,,0824.9,4.99,0.00,29.9,28.5,00.0,38.3,31.5,11.4,0000.0,0012.79,0004.63,0003.24
2023-05-04 04:24:00,,0824.9,4.99,0.00,29.9,28.5,00.0,38.3,31.5,11.5,0000.0,0012.58,0004.55,0003.22
2023-05-04 04:25:00,,0824.9,5.00,0.00,29.9,28.4,00.0,38.3,31.5,11.4,0000.0,0011.67,0004.52,0003.23
2023-05-04 04:26:00,,0824.9,5.00,0.00,29.9,28.4,00.0,38.3,31.4,11.4,0000.0,0010.72,0004.48,0003.25
2023-05-04 04:27:00,,0824.9,5.01,0.00,29.9,28.4,00.0,38.3,31.4,11.4,0000.0,0010.29,0004.43,0003.25
2023-05-04 04:28:00,,0824.9,5.00,0.00,29.9,28.4,00.0,38.3,31.4,11.5,0000.0,0010.27,0004.48,0003.24
2023-05-04 04:29:00,,0824.9,5.01,0.00,29.9,28.4,00.0,38.3,31.4,11.3,0000.0,0010.31,0004.48,0003.23
2023-05-04 04:30:00,,0824.9,5.00,0.00,29.9,28.4,00.0,38.3,31.5,11.4,0000.0,0010.45,0004.48,0003.24
2023-05-04 04:31:00,,0824.9,5.00,0.00,29.9,28.5,00.0,38.3,31.4,11.4,0000.0,0010.83,0004.57,0003.25
2023-05-04 04:32:00,,0824.9,5.00,0.00,29.9,28.5,00.0,38.3,31.4,11.4,0000.0,0010.45,0004.60,0003.25
2023-05-04 04:33:00,,0824.9,5.00,0.00,29.9,28.5,00.0,38.3,31.5,11.4,0000.0,0010.87,0004.65,0003.25
2023-05-04 04:34:00,,0824.9,4.99,0.00,29.9,28.5,00.0,38.3,31.4,11.3,0000.0,0010.95,0004.71,0003.23
2023-05-04 04:35:00,,0824.9,4.99,0.00,29.9,28.5,00.0,38.3,31.4,11.4,0000.0,0010.90,0004.70,0003.23
2023-05-04 04:36:00,,0824.9,5.00,0.00,29.9,28.5,00.0,38.3,31.4,11.4,0000.0,0011.04,0004.72,0003.24
2023-05-04 04:37:00,,0824.9,5.01,0.00,29.9,28.5,00.0,38.3,31.4,11.4,0000.0,0011.48,0004.77,0003.24
2023-05-04 04:38:00,,0824.9,5.02,0.00,29.9,28.4,00.0,38.3,31.4,11.3,0000.0,0011.82,0004.75,0003.24
2023-05-04 04:39:00,,0824.9,5.01,0.00,29.9,28.4,00.0,38.3,31.4,11.3,0000.0,0011.83,0004.72,0003.24
2023-05-04 04:40:00,,0824.8,5.00,0.00,29.9,28.4,00.0,38.3,31.4,11.3,0000.0,0011.77,0004.71,0003.24
2023-05-04 04:41:00,,0824.8,5.00,0.00,29.9,28.4,00.0,38.3,31.4,11.4,0000.0,0011.68,0004.72,0003.23
2023-05-04 04:42:00,,0824.8,5.00,0.00,29.9,28.4,00.0,38.3,31.4,11.4,0000.0,0011.38,0004.70,0003.22
2023-05-04 04:43:00,,0824.7,4.99,0.00,29.9,28.4,00.0,38.3,31.4,11.4,0000.0,0011.40,0004.71,0003.21
2023-05-04 04:44:00,,0824.7,5.02,0.00,29.9,28.4,00.0,38.3,31.4,11.3,0000.0,0011.12,0004.67,0003.22
2023-05-04 04:45:00,,0824.8,5.00,0.00,29.9,28.4,00.0,38.3,31.4,11.3,0000.0,0010.52,0004.62,0003.22
2023-05-04 04:46:00,,0824.7,4.99,0.00,29.9,28.4,00.0,38.3,31.4,11.4,0000.0,0010.49,0004.63,0003.22
2023-05-04 04:47:00,,0824.7,4.99,0.00,29.9,28.4,00.0,38.3,31.4,11.3,0000.0,0010.90,0004.68,0003.21
2023-05-04 04:48:00,,0824.7,5.01,0.00,29.9,28.4,00.0,38.3,31.4,11.3,0000.0,0010.79,0004.61,0003.21
2023-05-04 04:49:00,,0824.7,5.01,0.00,29.9,28.4,00.0,38.3,31.4,11.3,0000.0,0010.64,0004.63,0003.21
2023-05-04 04:50:00,,0824.8,4.99,0.00,29.9,28.4,00.0,38.3,31.4,11.3,0000.0,0010.63,0004.62,0003.20
2023-05-04 04:51:00,,0824.7,5.00,0.00,29.9,28.4,00.0,38.3,31.4,11.2,0000.0,0010.73,0004.64,0003.19
2023-05-04 04:52:00,,0824.7,4.99,0.00,29.9,28.4,00.0,38.3,31.4,11.3,0000.0,0010.83,0004.67,0003.21
2023-05-04 04:53:00,,0824.7,5.00,0.00,29.9,28.4,00.0,38.3,31.4,11.3,0000.0,0010.77,0004.67,0003.21
2023-05-04 04:54:00,,0824.7,5.01,0.00,29.9,28.4,00.0,38.3,31.4,11.2,0000.0,0010.72,0004.65,0003.21
2023-05-04 04:55:00,,0824.7,5.00,0.00,29.9,28.4,00.0,38.3,31.4,11.3,0000.0,0010.84,0004.70,0003.21
2023-05-04 04:56:00,,0824.7,5.00,0.00,29.9,28.4,00.0,38.3,31.4,11.2,0000.0,0010.87,0004.71,0003.20
2023-05-04 04:57:00,,0824.7,5.00,0.00,29.9,28.4,00.0,38.3,31.4,11.2,0000.0,0011.18,0004.75,0003.20
2023-05-04 04:58:00,,0824.7,4.99,0.00,29.9,28.4,00.0,38.3,31.4,11.2,0000.0,0011.25,0004.73,0003.21
2023-05-04 04:59:00,,0824.7,5.00,0.00,29.9,28.4,00.0,38.3,31.4,11.2,0000.0,0011.33,0004.73,0003.20
